India Forums Logo

Madhubala - Ek Ishq Ek Junoon

India Forums > Forum Index > Madhubala - Ek Ishq Ek Junoon
Madhubala, a story of a girl born on the sets of a Bollywood film who grows up to be mesmerizingly beautiful. She has no aspirations of entering the glamorous film industry but fate has
...
<< | 513 | 514 | 515 | 516 | 517 | 518 | 519 | 520 | 521 | 522 | 523 | 524 | 525 | 526 | 527 | 528 | 529 | 530 | 531 | ... >>
TIDTopic SubjectStart DateLast Entry
3561735Thank you guys4/30/2013 3:22:00 AM4/30/2013 4:07:18 AM
3561754SBB wah kya scene hai Mar Jawa dance4/30/2013 3:39:15 AM4/30/2013 5:12:32 AM
3561792Congratzz to our lovely DD4/30/2013 4:01:39 AM4/30/2013 9:45:38 AM
3561800CM ranking is in danger !!!4/30/2013 4:11:25 AM4/30/2013 5:17:23 AM
3561808Rishbala || Uska hi Bana Vm4/30/2013 4:14:34 AM5/5/2013 3:15:55 AM
3561832DD and VD are the souls of this show4/30/2013 4:38:35 AM5/1/2013 12:03:02 AM
3561867Madhu acting lyk...4/30/2013 5:04:56 AM4/30/2013 7:47:45 AM
3561869ITA Voting4/30/2013 5:07:18 AM4/30/2013 6:03:48 AM
3561874Vote ITA4/30/2013 5:11:08 AM4/30/2013 5:18:13 AM
3561898Rk is playing with madhu s brain.4/30/2013 5:35:20 AM4/30/2013 5:35:20 AM
3561899RK will make a mistake4/30/2013 5:35:32 AM5/1/2013 3:03:27 AM
3561908Hitting CM ?4/30/2013 5:46:42 AM4/30/2013 7:12:35 AM
3561914DD AT NO1 ON IF RANKING4/30/2013 5:54:06 AM5/1/2013 1:22:58 AM
3561915excited for todays epi4/30/2013 5:54:50 AM4/30/2013 6:04:23 AM
3561918sun raha hai na tu4/30/2013 5:59:09 AM5/24/2013 1:12:30 PM
3561925Disappointed/disgusted Modnote pg34/30/2013 6:05:40 AM5/1/2013 7:56:52 PM
3561979Are there any Mods in this forum???????4/30/2013 6:59:48 AM4/30/2013 7:44:24 AM
3561988WHY OH WHY ALL THIS CONTEMPT!???4/30/2013 7:03:58 AM5/1/2013 7:59:22 AM
3562018kaisi paheli zindagaani4/30/2013 7:24:11 AM5/24/2013 8:24:39 PM
3562039aasaan nahi yahaan AASHIQUI ho jana4/30/2013 7:41:28 AM5/24/2013 6:32:52 PM
3562049Please vote!!!!4/30/2013 7:46:57 AM4/30/2013 8:22:11 AM
3562055Rishbala prem game:-)4/30/2013 7:51:02 AM4/30/2013 8:44:05 AM
3562059New Spoiler: R.K Rescue Madhu.4/30/2013 7:52:25 AM4/30/2013 8:14:43 AM
3562068Drashti's Gorgeous Back ;-)) <3 <34/30/2013 8:02:22 AM5/2/2013 9:51:15 PM
3562079Avinesh Rekhi has such a beautiful smile4/30/2013 8:09:33 AM5/1/2013 9:59:53 PM
3562098Leaving forever!4/30/2013 8:18:49 AM4/30/2013 9:24:25 AM
3562102Happy about DD's ranking.4/30/2013 8:20:11 AM4/30/2013 10:20:45 PM
3562137Need the live Streaming link of Mb.4/30/2013 8:39:13 AM4/30/2013 8:39:13 AM
3562153Vivian Dsena : The Biggest Indian Tv Superstar! #W4/30/2013 8:43:24 AM5/2/2013 10:47:02 PM
3562158For Viv And VDians <34/30/2013 8:44:30 AM5/1/2013 9:00:26 AM
3562164DD in blue n black gown 'pics'4/30/2013 8:46:59 AM4/30/2013 5:51:17 PM
3562195CD (Count Down) Thread for 1st May 20134/30/2013 8:58:26 AM5/1/2013 9:05:59 AM
3562204CVs pls decide what to do with Sultan4/30/2013 9:01:07 AM4/30/2013 9:44:26 AM
356220630th Apr-Short LU-Aisi DEWANGI dekhi nahi kahi4/30/2013 9:01:44 AM4/30/2013 12:29:00 PM
3562209Episode 259 Discussion: 30th April 20134/30/2013 9:03:36 AM5/1/2013 9:09:12 AM
3562252Bas Haq Hai Ek Mera4/30/2013 9:25:53 AM4/30/2013 1:43:15 PM
3562253Mindblowing Dialogues... Epicness!4/30/2013 9:25:56 AM5/2/2013 1:58:43 PM
3562259OMGGG4/30/2013 9:27:32 AM4/30/2013 1:24:25 PM
3562260DP#81 to bcome all urs..here i go..away from u..Nt Pg944/30/2013 9:27:56 AM5/4/2013 11:30:52 AM
3562267mods plz close this4/30/2013 9:30:41 AM4/30/2013 9:40:05 AM
3562269teri maut pe bhi haq hai mera [Hats off to DVD]4/30/2013 9:31:22 AM5/1/2013 8:58:28 PM
3562270TODAY EPISODE BAS HAQ HAI EK MERRA RISHBALA4/30/2013 9:33:30 AM5/21/2013 4:10:47 PM
3562278OMG OMG4/30/2013 9:35:01 AM5/2/2013 1:40:56 PM
3562281What a Stunt Girl..i literally CLOSED my eyes..4/30/2013 9:36:53 AM4/30/2013 8:23:12 PM
3562282Rk eyes something hideing4/30/2013 9:37:06 AM4/30/2013 11:37:06 AM
3562283haq hai mera is back finallybut rk didn't reply4/30/2013 9:37:08 AM4/30/2013 10:16:27 AM
3562292IN UR FACE!!!..RK the HERO!!4/30/2013 9:41:33 AM5/1/2013 8:00:30 PM
3562295Do you LOVE Rishbala<3????4/30/2013 9:42:03 AM5/1/2013 2:44:33 PM
3562298Return of Bas Haq hai Ek Mera...hooot...hooot4/30/2013 9:43:23 AM5/2/2013 1:51:27 PM
3562304Drashti! clap clap4/30/2013 9:45:47 AM5/1/2013 5:02:18 AM
3562307hi i am new here4/30/2013 9:47:00 AM5/2/2013 10:07:51 PM
3562310Har Dhadkan Tumare Meri Hai!4/30/2013 9:47:26 AM6/1/2013 5:17:36 AM
3562317Tommorow Sulbala's turn :((4/30/2013 9:51:08 AM4/30/2013 10:20:46 PM
3562320Cv's pls take care of actors lives4/30/2013 9:51:42 AM5/1/2013 2:11:41 AM
3562334Old meiej is back4/30/2013 10:01:04 AM5/2/2013 1:52:36 AM
3562337Applause 2 da DIVA,da "BRAND" called Drashti Dhami4/30/2013 10:01:58 AM4/30/2013 11:25:40 PM
3562339TRULY A SPECIAL EPISODE!!!4/30/2013 10:02:28 AM4/30/2013 1:41:50 PM
3562344Alas!! Finally4/30/2013 10:03:08 AM4/30/2013 1:42:23 PM
3562351ooo ahahah ooo ahahah4/30/2013 10:04:56 AM5/2/2013 7:42:24 PM
3562355Ishq prevails!4/30/2013 10:07:05 AM4/30/2013 10:07:05 AM
3562356Rishabialious epi <34/30/2013 10:07:32 AM5/2/2013 1:53:16 PM
3562359Eagrly waiting for repeat telecast ?4/30/2013 10:09:56 AM4/30/2013 10:34:45 AM
3562364I trust you!!4/30/2013 10:13:39 AM5/2/2013 6:55:40 AM
3562368how many agree with me4/30/2013 10:15:08 AM4/30/2013 1:43:09 PM
3562369BAS HAQ HAI EK MERRA MB PICS 30 APRIL 2013 RISBALA4/30/2013 10:16:18 AM5/21/2013 4:12:07 PM
3562371VD : The show stealer again steals the show.4/30/2013 10:16:42 AM5/2/2013 12:24:52 AM
3562396Rishbala song was a symbolism?4/30/2013 10:23:38 AM5/5/2013 9:59:40 PM
3562397Can u see the Pain in his eyes? *wid pics*4/30/2013 10:23:40 AM5/21/2013 5:07:02 PM
3562407WE R CRAZY DRASHTI DHAMI FOR U !!!!!!!4/30/2013 10:27:45 AM5/21/2013 4:15:19 PM
3562408teri maut pe bhi haq hai ek mera4/30/2013 10:28:05 AM5/24/2013 1:13:20 PM
3562422Madhu lesson to RK 1 :10004/30/2013 10:32:23 AM5/1/2013 4:32:48 AM
3562423GUYS PLZ MAINTAIN PEACE4/30/2013 10:32:33 AM5/2/2013 10:01:59 PM
3562425Hats off CV's n vishti /rishbala Rocked..4/30/2013 10:33:21 AM5/1/2013 11:13:34 AM
3562426Even my mom enjoyed todays epi <34/30/2013 10:33:28 AM4/30/2013 12:25:39 PM
3562431madhu desrve to be wid rk more than sultan4/30/2013 10:35:01 AM5/1/2013 8:21:46 AM
<< | 513 | 514 | 515 | 516 | 517 | 518 | 519 | 520 | 521 | 522 | 523 | 524 | 525 | 526 | 527 | 528 | 529 | 530 | 531 | ... >>